This is the latest recevied weather packets stored in our database for station/object KE5JQA-1. If no packets are shown the sender has not sent any weather packets the latest 10 day(s).
| Time | Temp. | Humidity | Pressure | Rain* | Wind** | Luminosity | Snow |
|---|---|---|---|---|---|---|---|
| 1777845617 | 27.78° C | 26% | 1019.2 hPa | 0 mm | - | - | - |
| 1777843217 | 28.33° C | 25% | 1019.7 hPa | 0 mm | - | - | - |
| 1777842617 | 28.33° C | 26% | 1020 hPa | 0 mm | - | - | - |
| 1777842017 | 28.89° C | 27% | 1020.2 hPa | 0 mm | - | - | - |
| 1777839916 | 28.33° C | 26% | 1020.9 hPa | 0 mm | - | - | - |
| 1777839617 | 28.33° C | 26% | 1020.9 hPa | 0 mm | - | - | - |
| 1777836916 | 28.33° C | 23% | 1021.6 hPa | 0 mm | - | - | - |
| 1777836617 | 28.33° C | 23% | 1021.6 hPa | 0 mm | - | - | - |
| 1777836317 | 28.33° C | 25% | 1021.8 hPa | 0 mm | - | - | - |
| 1777835716 | 27.78° C | 24% | 1022 hPa | 0 mm | - | - | - |
| 1777832117 | 27.22° C | 28% | 1022.8 hPa | 0 mm | - | - | - |
| 1777831216 | 27.22° C | 27% | 1023 hPa | 0 mm | - | - | - |
| 1777827916 | 26.11° C | 30% | 1023.9 hPa | 0 mm | - | - | - |
| 1777827616 | 25.56° C | 30% | 1024 hPa | 0 mm | - | - | - |
| 1777822236 | 23.33° C | 42% | 1024.4 hPa | 0 mm | - | - | - |
| 1777821016 | 22.22° C | 42% | 1024.3 hPa | 0 mm | - | - | - |
| 1777820716 | 22.22° C | 42% | 1024.3 hPa | 0 mm | - | - | - |
| 1777819516 | 21.11° C | 43% | 1024.2 hPa | 0 mm | - | - | - |
| 1777818016 | 19.44° C | 14% | 1024 hPa | 0 mm | - | - | - |
| 1777815916 | 17.78° C | 18% | 1023.9 hPa | 0 mm | - | - | - |
| 1777815016 | 18.33° C | 16% | 1023.9 hPa | 0 mm | - | - | - |
| 1777814416 | 17.22° C | 18% | 1023.8 hPa | 0 mm | - | - | - |
| 1777813216 | 14.44° C | 32% | 1023.8 hPa | 0 mm | - | - | - |
| 1777812936 | 13.89° C | 34% | 1023.6 hPa | 0 mm | - | - | - |
| 1777810216 | 10.56° C | 39% | 1022.9 hPa | 0 mm | - | - | - |
* Rain latest hour (hover to see other rain measurements)
** Current wind speed in m/s (hover to see current wind gust speed)